Location: Azenweiler
(47.8027°N, 9.4096°E)
Time: 01:00:21
(UTC+00:00)

Cosmos 2237 Rocket - Pass Details

Date: 10 December 2025
Orbit: 835 x 848 km, 71.0° (Epoch: 17 January)

Event Time Altitude Azimuth Distance (km) Brightness Sun altitude
Exits shadow 06:00:09 - 338° (NNW) 3,247 4.8 -9.7°
Reaches altitude 10° 06:02:33 10° 349° (N) 2,457 4.3 -9.3°
Maximum altitude 06:07:19 27° 47° (NE) 1,545 3.8 -8.6°
Drops below altitude 10° 06:12:04 10° 105° (ESE) 2,450 6.2 -7.9°
Sets 06:14:52 0° 117° (ESE) 3,383 8.0 -7.4°
